Location: Leuk
(46.3174°N, 7.6341°E)
Time: 17:59:45
(UTC+00:00)

Cosmos 192 - Pass Details

Date: 09 March 2021
Orbit: 700 x 714 km, 74.0° (Epoch: 14 April)

Event Time Altitude Azimuth Distance (km) Brightness Sun altitude
Rises 04:16:40 0° 336° (NNW) 3,118 7.5 -17.5°
Reaches altitude 10° 04:19:00 10° 334° (NNW) 2,196 6.7 -17.1°
Maximum altitude 04:23:56 71° 252° (WSW) 755 4.2 -16.3°
Drops below altitude 10° 04:28:51 10° 168° (SSE) 2,186 6.9 -15.4°
Sets 04:31:10 0° 167° (SSE) 3,102 7.7 -15.0°
